When you browse on this site, cookies collect data to enhance your experience and personalize the content and advertising you see.
Visit our Privacy Policy to learn more. By continuing to use the site, you agree to this use of cookies and data.
  • In Austria
  • List of Countries
  • For 7 days
  • Water Temperature
  • Weather Map
  • News
  • Weather Widgets
  • user-avatar
    Login

    Hourly Weather Zamorskoe

    Today, 24 January, Friday

    Time Temperature Precipitation Wind Pressure Humidity
    00:00 -5°C° 0.2 mm 2 mps 724 mmHg 96%
    01:00 -5°C° 0.2 mm 2 mps 725 mmHg 97%
    02:00 -5°C° 0.3 mm 2 mps 725 mmHg 96%
    03:00 -6°C° 0.3 mm 3 mps 725 mmHg 96%
    04:00 -6°C° 0.3 mm 3 mps 725 mmHg 96%
    05:00 -7°C° 0.2 mm 3 mps 725 mmHg 96%
    06:00 -8°C° 0.2 mm 3 mps 726 mmHg 95%
    07:00 -8°C° 0.2 mm 3 mps 726 mmHg 95%
    08:00 -9°C° 0.1 mm 4 mps 727 mmHg 95%
    09:00 -9°C° 0.1 mm 4 mps 727 mmHg 94%
    10:00 -9°C° 0.1 mm 4 mps 728 mmHg 93%
    11:00 -10°C° 0 mm 4 mps 728 mmHg 93%
    12:00 -10°C° 0 mm 4 mps 729 mmHg 92%
    13:00 -10°C° 0 mm 4 mps 729 mmHg 91%
    14:00 -11°C° 0 mm 4 mps 729 mmHg 91%
    15:00 -12°C° 0 mm 3 mps 730 mmHg 91%
    16:00 -12°C° 0 mm 3 mps 730 mmHg 91%
    17:00 -14°C° 0 mm 3 mps 731 mmHg 91%
    18:00 -16°C° 0 mm 4 mps 731 mmHg 91%
    19:00 -17°C° 0 mm 4 mps 731 mmHg 91%
    20:00 -18°C° 0 mm 4 mps 732 mmHg 91%
    21:00 -19°C° 0 mm 4 mps 733 mmHg 91%
    22:00 -20°C° 0 mm 4 mps 733 mmHg 91%
    23:00 -20°C° 0 mm 4 mps 733 mmHg 92%

    Tomorrow, 25 January, Saturday

    Time Temperature Precipitation Wind Pressure Humidity
    00:00 -22°C° 0 mm 4 mps 734 mmHg 93%
    01:00 -22°C° 0 mm 4 mps 734 mmHg 93%
    02:00 -23°C° 0 mm 4 mps 734 mmHg 94%
    03:00 -23°C° 0 mm 4 mps 734 mmHg 94%
    04:00 -23°C° 0 mm 4 mps 734 mmHg 95%
    05:00 -23°C° 0 mm 4 mps 734 mmHg 95%
    06:00 -23°C° 0 mm 4 mps 734 mmHg 96%
    07:00 -24°C° 0 mm 5 mps 734 mmHg 96%
    08:00 -22°C° 0 mm 5 mps 733 mmHg 94%
    09:00 -22°C° 0 mm 6 mps 733 mmHg 92%
    10:00 -20°C° 0 mm 6 mps 733 mmHg 91%
    11:00 -19°C° 0 mm 7 mps 732 mmHg 89%
    12:00 -17°C° 0 mm 8 mps 732 mmHg 87%
    13:00 -16°C° 0 mm 9 mps 731 mmHg 85%
    14:00 -15°C° 0.1 mm 9 mps 731 mmHg 87%
    15:00 -14°C° 0.1 mm 9 mps 730 mmHg 88%
    16:00 -14°C° 0.1 mm 9 mps 730 mmHg 89%
    17:00 -14°C° 0 mm 9 mps 729 mmHg 89%
    18:00 -12°C° 0 mm 9 mps 729 mmHg 89%
    19:00 -12°C° 0 mm 9 mps 729 mmHg 89%
    20:00 -12°C° 0 mm 8 mps 728 mmHg 89%
    21:00 -12°C° 0 mm 8 mps 728 mmHg 89%
    22:00 -11°C° 0 mm 7 mps 728 mmHg 90%
    23:00 -11°C° 0 mm 7 mps 728 mmHg 90%

    Day after tomorrow, 26 January, Sunday

    Time Temperature Precipitation Wind Pressure Humidity
    00:00 -11°C° 0 mm 7 mps 727 mmHg 90%
    01:00 -9°C° 0 mm 7 mps 727 mmHg 91%
    02:00 -10°C° 0.1 mm 8 mps 726 mmHg 91%
    03:00 -10°C° 0.1 mm 8 mps 725 mmHg 91%
    04:00 -9°C° 0.1 mm 9 mps 725 mmHg 92%
    05:00 -9°C° 0.2 mm 9 mps 724 mmHg 92%
    06:00 -8°C° 0.2 mm 9 mps 723 mmHg 93%
    07:00 -8°C° 0.2 mm 10 mps 722 mmHg 94%
    08:00 -6°C° 0.3 mm 9 mps 722 mmHg 93%
    09:00 -6°C° 0.3 mm 9 mps 721 mmHg 92%
    10:00 -6°C° 0.3 mm 9 mps 721 mmHg 91%
    11:00 -6°C° 0.1 mm 9 mps 720 mmHg 91%
    12:00 -6°C° 0.1 mm 9 mps 720 mmHg 90%
    13:00 -5°C° 0.1 mm 9 mps 719 mmHg 89%
    14:00 -6°C° 0.1 mm 8 mps 720 mmHg 88%
    15:00 -7°C° 0.1 mm 7 mps 720 mmHg 87%
    16:00 -7°C° 0.1 mm 7 mps 720 mmHg 86%
    17:00 -8°C° 0 mm 6 mps 720 mmHg 86%
    18:00 -10°C° 0 mm 6 mps 721 mmHg 86%
    19:00 -11°C° 0 mm 6 mps 721 mmHg 87%
    20:00 -12°C° 0.2 mm 7 mps 722 mmHg 88%
    21:00 -11°C° 0.2 mm 7 mps 722 mmHg 90%
    22:00 -11°C° 0.2 mm 7 mps 723 mmHg 91%
    23:00 -12°C° 0.1 mm 7 mps 724 mmHg 89%

    27 January, Monday

    Time Temperature Precipitation Wind Pressure Humidity
    00:00 -13°C° 0.1 mm 7 mps 724 mmHg 87%
    01:00 -14°C° 0.1 mm 7 mps 725 mmHg 85%
    02:00 -15°C° 0 mm 6 mps 726 mmHg 85%
    03:00 -16°C° 0 mm 6 mps 726 mmHg 86%
    04:00 -17°C° 0 mm 6 mps 727 mmHg 87%
    05:00 -18°C° 0 mm 6 mps 728 mmHg 86%
    06:00 -21°C° 0 mm 6 mps 729 mmHg 85%
    07:00 -22°C° 0 mm 6 mps 730 mmHg 85%
    08:00 -21°C° 0 mm 6 mps 730 mmHg 85%
    09:00 -21°C° 0 mm 6 mps 731 mmHg 84%
    10:00 -20°C° 0 mm 7 mps 732 mmHg 84%
    11:00 -20°C° 0 mm 7 mps 732 mmHg 84%
    12:00 -19°C° 0 mm 7 mps 732 mmHg 84%
    13:00 -18°C° 0 mm 7 mps 733 mmHg 84%
    14:00 -18°C° 0 mm 6 mps 733 mmHg 85%
    15:00 -18°C° 0 mm 6 mps 733 mmHg 85%
    16:00 -18°C° 0 mm 5 mps 734 mmHg 86%
    17:00 -18°C° 0 mm 5 mps 734 mmHg 88%
    18:00 -18°C° 0 mm 5 mps 734 mmHg 90%
    19:00 -17°C° 0 mm 4 mps 734 mmHg 91%
    20:00 -17°C° 0 mm 5 mps 733 mmHg 91%
    21:00 -15°C° 0 mm 5 mps 733 mmHg 90%
    22:00 -15°C° 0 mm 5 mps 732 mmHg 90%
    23:00 -15°C° 0 mm 6 mps 732 mmHg 89%

    28 January, Tuesday

    Time Temperature Precipitation Wind Pressure Humidity
    00:00 -15°C° 0 mm 6 mps 732 mmHg 89%
    01:00 -14°C° 0 mm 6 mps 732 mmHg 88%
    02:00 -15°C° 0 mm 6 mps 733 mmHg 85%
    03:00 -16°C° 0 mm 6 mps 734 mmHg 82%
    04:00 -17°C° 0 mm 5 mps 735 mmHg 79%
    05:00 -19°C° 0 mm 5 mps 736 mmHg 80%
    06:00 -22°C° 0 mm 5 mps 737 mmHg 82%
    07:00 -24°C° 0 mm 4 mps 738 mmHg 83%
    08:00 -24°C° 0 mm 4 mps 739 mmHg 84%
    09:00 -23°C° 0 mm 4 mps 739 mmHg 84%
    10:00 -22°C° 0 mm 3 mps 740 mmHg 85%
    11:00 -21°C° 0 mm 3 mps 741 mmHg 85%
    12:00 -19°C° 0 mm 2 mps 741 mmHg 85%
    13:00 -18°C° 0 mm 2 mps 742 mmHg 85%
    14:00 -18°C° 0 mm 2 mps 742 mmHg 85%
    15:00 -19°C° 0 mm 2 mps 742 mmHg 85%
    16:00 -17°C° 0 mm 1 mps 743 mmHg 85%
    17:00 -18°C° 0 mm 1 mps 743 mmHg 84%
    18:00 -18°C° 0 mm 1 mps 744 mmHg 84%
    19:00 -18°C° 0 mm 1 mps 744 mmHg 84%
    20:00 -18°C° 0 mm 1 mps 744 mmHg 83%
    21:00 -18°C° 0 mm 1 mps 745 mmHg 82%
    22:00 -19°C° 0 mm 1 mps 745 mmHg 81%
    23:00 -18°C° 0 mm 0 mps 745 mmHg 80%

    29 January, Wednesday

    Time Temperature Precipitation Wind Pressure Humidity
    00:00 -18°C° 0 mm 0 mps 745 mmHg 79%
    01:00 -18°C° 0 mm 0 mps 745 mmHg 78%
    02:00 -18°C° 0 mm 0 mps 745 mmHg 78%
    03:00 -17°C° 0 mm 0 mps 746 mmHg 78%
    04:00 -17°C° 0 mm 1 mps 746 mmHg 77%
    05:00 -17°C° 0 mm 1 mps 746 mmHg 79%
    06:00 -16°C° 0 mm 1 mps 746 mmHg 81%
    07:00 -16°C° 0 mm 1 mps 746 mmHg 82%
    08:00 -15°C° 0 mm 1 mps 747 mmHg 85%
    09:00 -15°C° 0 mm 1 mps 747 mmHg 88%
    10:00 -14°C° 0 mm 1 mps 747 mmHg 90%
    11:00 -13°C° 0 mm 1 mps 747 mmHg 91%
    12:00 -12°C° 0 mm 1 mps 747 mmHg 91%
    13:00 -11°C° 0 mm 1 mps 747 mmHg 92%
    14:00 -11°C° 0 mm 1 mps 747 mmHg 93%
    15:00 -11°C° 0 mm 1 mps 747 mmHg 94%
    16:00 -11°C° 0 mm 1 mps 747 mmHg 95%
    17:00 -12°C° 0 mm 1 mps 748 mmHg 96%
    18:00 -13°C° 0 mm 1 mps 748 mmHg 96%
    19:00 -13°C° 0 mm 1 mps 748 mmHg 96%
    20:00 -14°C° 0 mm 1 mps 748 mmHg 97%
    21:00 -14°C° 0 mm 1 mps 748 mmHg 97%
    22:00 -14°C° 0 mm 1 mps 748 mmHg 98%
    23:00 -14°C° 0 mm 1 mps 748 mmHg 98%
    Show more